Location: Unspecified
(0.0000°N, 0.0000°E)
Time: 16:03:10
(UTC+00:00)

Tiangong - Pass Details

Date: 20 May 2026
Orbit: 380 x 392 km, 41.5° (Epoch: 11 June)

Event Time Altitude Azimuth Distance (km) Brightness Sun altitude
Exits shadow 03:53:48 12° 37° (NE) 1,277 1.2 -28.7°
Drops below altitude 10° 03:55:25 10° 68° (ENE) 1,391 1.6 -28.3°
Enters shadow 05:00:45 -55° 312° (NW) 10,912 5.1 -13.1°
Maximum altitude 05:30:52 28° 224° (SW) 754 -1.1 -6.0°
